Weather History for Forest City, IA

Change the Weather History Date:

Sunday, March 3, 2013

  Actual Average Record
Temperature  
Mean Temperature 24 °F -  
Max Temperature 30 °F 36 °F 30 °F (2012)
Min Temperature 19 °F 20 °F -11 °F (2014)
Degree Days  
Heating Degree Days 40    
Moisture  
Dew Point 16 °F    
Average Humidity 69    
Maximum Humidity 86    
Minimum Humidity 51    
Precipitation  
Precipitation 0.00 in - - ()
Sea Level Pressure  
Sea Level Pressure 30.00 in    
Wind  
Wind Speed 9 mph (SE)    
Max Wind Speed 18 mph    
Max Gust Speed 24 mph    
Visibility 10 miles    
Events Snow    
Averages and records for this station are not official NWS values.
T = Trace of Precipitation, MM = Missing Value Source: NWS Daily Summary

Daily Weather History Graph

Daily Weather History Graph

Search for Another Location

Airport:

Trip Planner

Search our weather history database for the weather conditions in past years. The results will help you decide how hot, cold, wet, or windy it might be!

Date:

Astronomy

Mar. 03, 2013 Rise Set
Actual Time 6:46 AM CST 6:06 PM CST
Civil Twilight 6:18 AM CST 6:35 PM CST
Nautical Twilight 5:45 AM CST 7:07 PM CST
Astronomical Twilight 5:12 AM CST 7:41 PM CST
Moon No Moon Rise 9:51 AM CST (3/3)
Length of Visible Light 12h 16m
Length of Day
11h 19m
Waning Gibbous, 63% of the Moon is Illuminated
Mar 3
Waning Gibbous
Mar 4
Last Quarter
Mar 11
New
Mar 19
First Quarter
Mar 27
Full

Hourly Weather History & Observations

Time (CST) Temp. Windchill Dew Point Humidity Pressure Visibility Wind Dir Wind Speed Gust Speed Precip Events Conditions
12:15 AM 21.2 °F 16.4 °F 15.8 °F 80% 30.11 in 10.0 mi South 3.5 mph - N/A   Overcast
12:35 AM 21.2 °F 16.4 °F 15.8 °F 80% 30.12 in 10.0 mi ESE 3.5 mph - N/A   Overcast
12:55 AM 21.2 °F 14.9 °F 14.0 °F 74% 30.11 in 10.0 mi East 4.6 mph - N/A   Overcast
1:55 AM 21.2 °F 14.9 °F 15.8 °F 80% 30.10 in 10.0 mi ESE 4.6 mph - N/A   Overcast
2:15 AM 21.2 °F 16.4 °F 15.8 °F 80% 30.09 in 10.0 mi ESE 3.5 mph - N/A   Overcast
2:35 AM 21.2 °F 16.4 °F 15.8 °F 80% 30.09 in 10.0 mi ESE 3.5 mph - N/A   Overcast
2:55 AM 21.2 °F 13.6 °F 15.8 °F 80% 30.08 in 10.0 mi SE 5.8 mph - N/A   Overcast
3:15 AM 23.0 °F 15.8 °F 15.8 °F 74% 30.08 in 10.0 mi ESE 5.8 mph - N/A   Overcast
3:35 AM 23.0 °F 15.8 °F 15.8 °F 74% 30.07 in 10.0 mi SE 5.8 mph - N/A   Overcast
3:55 AM 23.0 °F 15.8 °F 15.8 °F 74% 30.06 in 10.0 mi SE 5.8 mph - N/A   Overcast
4:15 AM 23.0 °F 14.7 °F 17.6 °F 80% 30.06 in 10.0 mi SSE 6.9 mph - N/A   Overcast
4:35 AM 23.0 °F 13.9 °F 17.6 °F 80% 30.06 in 10.0 mi SSE 8.1 mph - N/A   Overcast
4:55 AM 23.0 °F 13.9 °F 17.6 °F 80% 30.06 in 10.0 mi SSE 8.1 mph - N/A   Overcast
5:15 AM 23.0 °F 13.9 °F 17.6 °F 80% 30.06 in 10.0 mi SSE 8.1 mph - N/A   Overcast
5:35 AM 23.0 °F 14.7 °F 17.6 °F 80% 30.06 in 10.0 mi SSE 6.9 mph - N/A   Overcast
5:55 AM 23.0 °F 13.1 °F 19.4 °F 86% 30.06 in 10.0 mi SE 9.2 mph - N/A   Overcast
6:15 AM 23.0 °F 14.7 °F 19.4 °F 86% 30.06 in 10.0 mi ESE 6.9 mph - N/A   Overcast
6:35 AM 23.0 °F 15.8 °F 17.6 °F 80% 30.06 in 10.0 mi East 5.8 mph - N/A   Mostly Cloudy
6:55 AM 21.2 °F 13.6 °F 17.6 °F 86% 30.05 in 10.0 mi East 5.8 mph - N/A   Clear
7:15 AM 19.4 °F 11.5 °F 15.8 °F 86% 30.05 in 10.0 mi ESE 5.8 mph - N/A   Clear
7:35 AM 21.2 °F 12.6 °F 15.8 °F 80% 30.06 in 10.0 mi East 6.9 mph - N/A   Clear
7:55 AM 21.2 °F 10.9 °F 17.6 °F 86% 30.06 in 10.0 mi East 9.2 mph - N/A   Clear
8:15 AM 23.0 °F 12.4 °F 17.6 °F 80% 30.06 in 10.0 mi ESE 10.4 mph - N/A   Clear
8:35 AM 23.0 °F 11.1 °F 17.6 °F 80% 30.06 in 10.0 mi ESE 12.7 mph 17.3 mph N/A   Clear
8:55 AM 23.0 °F 12.4 °F 17.6 °F 80% 30.05 in 10.0 mi SE 10.4 mph - N/A   Clear
9:15 AM 23.0 °F 10.1 °F 17.6 °F 80% 30.05 in 10.0 mi ESE 15.0 mph - N/A   Clear
9:35 AM 24.8 °F 12.9 °F 17.6 °F 74% 30.04 in 10.0 mi SE 13.8 mph 18.4 mph N/A   Clear
9:55 AM 26.6 °F 15.7 °F 17.6 °F 69% 30.04 in 10.0 mi ESE 12.7 mph - N/A   Clear
10:15 AM 26.6 °F 14.7 °F 17.6 °F 69% 30.03 in 10.0 mi SE 15.0 mph 19.6 mph N/A   Clear
10:35 AM 28.4 °F 18.0 °F 17.6 °F 64% 30.03 in 10.0 mi SE 12.7 mph - N/A   Clear
10:55 AM 28.4 °F 17.0 °F 17.6 °F 64% 30.04 in 10.0 mi SE 15.0 mph - N/A   Clear
11:15 AM 28.4 °F 16.6 °F 19.4 °F 69% 30.03 in 10.0 mi SSE 16.1 mph - N/A   Clear
11:35 AM 28.4 °F 16.6 °F 19.4 °F 69% 30.03 in 10.0 mi SE 16.1 mph - N/A   Clear
11:55 AM 30.2 °F 18.5 °F 19.4 °F 64% 30.02 in 10.0 mi SE 17.3 mph - N/A   Clear
12:15 PM 28.4 °F 15.8 °F 19.4 °F 69% 30.01 in 10.0 mi SE 18.4 mph - N/A   Scattered Clouds
12:35 PM 30.2 °F 18.9 °F 19.4 °F 64% 30.00 in 10.0 mi SE 16.1 mph - N/A   Mostly Cloudy
12:55 PM 30.2 °F 18.9 °F 17.6 °F 60% 29.99 in 10.0 mi SE 16.1 mph - N/A   Mostly Cloudy
1:15 PM 30.2 °F 18.9 °F 19.4 °F 64% 29.98 in 10.0 mi SE 16.1 mph 20.7 mph N/A   Mostly Cloudy
1:35 PM 30.2 °F 18.5 °F 17.6 °F 60% 29.97 in 10.0 mi SE 17.3 mph - N/A   Mostly Cloudy
1:55 PM 30.2 °F 18.5 °F 17.6 °F 60% 29.97 in 10.0 mi SSE 17.3 mph - N/A   Scattered Clouds
2:15 PM 30.2 °F 18.1 °F 17.6 °F 60% 29.96 in 10.0 mi SE 18.4 mph - N/A   Clear
2:35 PM 30.2 °F 18.5 °F 17.6 °F 60% 29.95 in 10.0 mi SE 17.3 mph - N/A   Clear
2:55 PM 30.2 °F 18.5 °F 17.6 °F 60% 29.95 in 10.0 mi SE 17.3 mph 20.7 mph N/A   Clear
3:15 PM 30.2 °F 18.1 °F 17.6 °F 60% 29.95 in 10.0 mi SE 18.4 mph - N/A   Clear
3:35 PM 30.2 °F 18.5 °F 15.8 °F 55% 29.95 in 10.0 mi SE 17.3 mph 23.0 mph N/A   Clear
3:55 PM 30.2 °F 19.3 °F 19.4 °F 64% 29.94 in 10.0 mi ESE 15.0 mph - N/A   Clear
4:15 PM 30.2 °F 19.3 °F 17.6 °F 60% 29.93 in 10.0 mi ESE 15.0 mph - N/A   Clear
4:35 PM 28.4 °F 17.0 °F 17.6 °F 64% 29.94 in 10.0 mi ESE 15.0 mph - N/A   Clear
4:55 PM 28.4 °F 17.5 °F 14.0 °F 55% 29.93 in 10.0 mi ESE 13.8 mph 21.9 mph N/A   Clear
5:15 PM 26.6 °F 14.7 °F 10.4 °F 51% 29.93 in 10.0 mi ESE 15.0 mph 21.9 mph N/A   Clear
5:35 PM 26.6 °F 15.7 °F 10.4 °F 51% 29.93 in 10.0 mi ESE 12.7 mph 18.4 mph N/A   Clear
5:55 PM 26.6 °F 14.7 °F 12.2 °F 55% 29.93 in 10.0 mi ESE 15.0 mph 20.7 mph N/A   Clear
6:35 PM 26.6 °F 14.7 °F 14.0 °F 59% 29.92 in 10.0 mi ESE 15.0 mph 20.7 mph N/A   Scattered Clouds
6:55 PM 26.6 °F 15.7 °F 14.0 °F 59% 29.92 in 10.0 mi ESE 12.7 mph 19.6 mph N/A   Overcast
7:15 PM 26.6 °F 15.2 °F 14.0 °F 59% 29.92 in 10.0 mi ESE 13.8 mph 20.7 mph N/A   Overcast
7:35 PM 26.6 °F 15.2 °F 14.0 °F 59% 29.93 in 10.0 mi ESE 13.8 mph 20.7 mph N/A   Overcast
7:55 PM 26.6 °F 15.7 °F 14.0 °F 59% 29.93 in 10.0 mi ESE 12.7 mph 17.3 mph N/A   Overcast
8:15 PM 26.6 °F 15.7 °F 12.2 °F 55% 29.93 in 10.0 mi ESE 12.7 mph 18.4 mph N/A   Overcast
8:35 PM 26.6 °F 16.2 °F 14.0 °F 59% 29.94 in 10.0 mi ESE 11.5 mph 17.3 mph N/A   Overcast
8:55 PM 26.6 °F 15.2 °F 14.0 °F 59% 29.93 in 10.0 mi SE 13.8 mph - N/A   Overcast
9:15 PM 26.6 °F 14.7 °F 14.0 °F 59% 29.93 in 10.0 mi ESE 15.0 mph 19.6 mph N/A   Overcast
9:35 PM 26.6 °F 15.7 °F 14.0 °F 59% 29.92 in 10.0 mi SE 12.7 mph - N/A   Overcast
9:55 PM 26.6 °F 15.2 °F 14.0 °F 59% 29.92 in 10.0 mi SE 13.8 mph 23.0 mph N/A   Overcast
10:15 PM 26.6 °F 15.2 °F 14.0 °F 59% 29.92 in 10.0 mi SE 13.8 mph 20.7 mph N/A   Overcast
10:35 PM 26.6 °F 14.7 °F 14.0 °F 59% 29.93 in 10.0 mi SE 15.0 mph - N/A   Overcast
10:55 PM 26.6 °F 14.7 °F 14.0 °F 59% 29.94 in 10.0 mi SE 15.0 mph - N/A Snow Light Snow
11:15 PM 24.8 °F 12.9 °F 19.4 °F 80% 29.94 in 2.0 mi SE 13.8 mph 19.6 mph N/A Snow Light Snow
11:35 PM 23.0 °F 9.6 °F 19.4 °F 86% 29.93 in 2.5 mi SE 16.1 mph 19.6 mph N/A Snow Light Snow
11:55 PM 23.0 °F 9.2 °F 19.4 °F 86% 29.92 in 2.0 mi SE 17.3 mph 24.2 mph N/A Snow Light Snow